| time (UTC) | temp F | wind direction | speed MPH | gust MPH | rain 1hr in | rain 24hr in | rain mn in | humidity % | barometer mb |
| 20260502163019 | 53 | 107 | 2.0 | 6.0 | 0.00 | 0.00 | 0.00 | 84 | 1011.3 |
| 20260502161515 | 52 | 178 | 2.0 | 6.0 | 0.00 | 0.00 | 0.00 | 84 | 1011.3 |
| 20260502151513 | 52 | 71 | 0.0 | 4.0 | 0.00 | 0.00 | 0.00 | 79 | 1011.8 |
| 20260502130106 | 48 | 355 | 1.0 | 4.0 | 0.00 | 0.00 | 0.00 | 90 | 1011.8 |
| 20260502123055 | 47 | 288 | 0.0 | 2.0 | 0.00 | 0.00 | 0.00 | 91 | 1011.9 |
| 20260502121601 | 47 | 269 | 0.0 | 2.0 | 0.00 | 0.00 | 0.00 | 91 | 1012.0 |
| 20260502120112 | 47 | 259 | 0.0 | 3.0 | 0.00 | 0.00 | 0.00 | 90 | 1012.3 |
| 20260502114557 | 47 | 269 | 0.0 | 0.0 | 0.00 | 0.00 | 0.00 | 90 | 1012.3 |
| 20260502113111 | 47 | 269 | 1.0 | 4.0 | 0.00 | 0.00 | 0.00 | 90 | 1012.5 |
| 20260502111552 | 47 | 186 | 0.0 | 2.0 | 0.00 | 0.00 | 0.00 | 90 | 1012.4 |
| 20260502110051 | 46 | 186 | 0.0 | 4.0 | 0.00 | 0.00 | 0.00 | 90 | 1012.2 |
| 20260502104548 | 46 | 142 | 0.0 | 2.0 | 0.00 | 0.00 | 0.00 | 89 | 1012.0 |
| 20260502103108 | 46 | 143 | 0.0 | 1.0 | 0.00 | 0.00 | 0.00 | 88 | 1011.6 |
| 20260502101552 | 46 | 137 | 0.0 | 0.0 | 0.00 | 0.00 | 0.00 | 88 | 1011.5 |
| 20260502071535 | 47 | 138 | 0.0 | 2.0 | 0.00 | 0.00 | 0.00 | 82 | 1011.4 |
| 20260502070032 | 47 | 135 | 0.0 | 3.0 | 0.00 | 0.00 | 0.00 | 82 | 1011.4 |
| 20260502064536 | 47 | 138 | 0.0 | 1.0 | 0.00 | 0.00 | 0.00 | 81 | 1011.3 |
| 20260502063029 | 47 | 138 | 0.0 | 1.0 | 0.00 | 0.00 | 0.00 | 81 | 1011.5 |
| 20260502061526 | 47 | 137 | 0.0 | 2.0 | 0.00 | 0.00 | 0.00 | 80 | 1011.6 |
| 20260502060024 | 47 | 157 | 0.0 | 3.0 | 0.00 | 0.00 | 0.00 | 80 | 1011.8 |
| 20260502054524 | 48 | 147 | 0.0 | 4.0 | 0.00 | 0.00 | 0.00 | 79 | 1011.8 |
| 20260502053019 | 48 | 157 | 0.0 | 0.0 | 0.00 | 0.00 | 0.00 | 79 | 1011.8 |
| 20260502051519 | 48 | 153 | 0.0 | 3.0 | 0.00 | 0.00 | 0.00 | 78 | 1012.0 |
| 20260502050015 | 49 | 167 | 1.0 | 5.0 | 0.00 | 0.00 | 0.00 | 77 | 1012.1 |
| 20260502044513 | 49 | 107 | 1.0 | 6.0 | 0.00 | 0.00 | 0.00 | 77 | 1012.1 |
| 20260502043013 | 49 | 167 | 2.0 | 4.0 | 0.00 | 0.00 | 0.00 | 76 | 1012.3 |
| 20260502041508 | 49 | 156 | 1.0 | 6.0 | 0.00 | 0.00 | 0.00 | 75 | 1012.0 |
| 20260502040008 | 49 | 140 | 0.0 | 3.0 | 0.00 | 0.00 | 0.00 | 75 | 1012.1 |
| 20260502034508 | 49 | 143 | 0.0 | 5.0 | 0.00 | 0.00 | 0.00 | 74 | 1012.3 |
| 20260502033008 | 49 | 149 | 0.0 | 2.0 | 0.00 | 0.00 | 0.00 | 74 | 1012.3 |
| 20260502031504 | 49 | 153 | 0.0 | 2.0 | 0.00 | 0.00 | 0.00 | 73 | 1012.4 |
| 20260502030004 | 49 | 147 | 0.0 | 2.0 | 0.00 | 0.00 | 0.00 | 72 | 1012.3 |
| 20260502024503 | 50 | 150 | 0.0 | 3.0 | 0.00 | 0.00 | 0.00 | 72 | 1012.3 |
| 20260502023002 | 50 | 194 | 0.0 | 1.0 | 0.00 | 0.00 | 0.00 | 71 | 1012.3 |
| 20260502021501 | 50 | 169 | 0.0 | 6.0 | 0.00 | 0.00 | 0.00 | 70 | 1012.3 |
| 20260502020002 | 50 | 164 | 0.0 | 2.0 | 0.00 | 0.00 | 0.00 | 69 | 1012.3 |
| 20260502014500 | 51 | 157 | 1.0 | 5.0 | 0.00 | 0.00 | 0.00 | 69 | 1012.4 |
| 20260502013102 | 51 | 182 | 3.0 | 8.0 | 0.00 | 0.00 | 0.00 | 68 | 1012.4 |
| 20260502011559 | 51 | 155 | 1.0 | 3.0 | 0.00 | 0.00 | 0.00 | 65 | 1012.3 |
| 20260502010059 | 52 | 146 | 0.0 | 3.0 | 0.00 | 0.00 | 0.00 | 63 | 1012.1 |
| 20260502004556 | 52 | 140 | 0.0 | 5.0 | 0.00 | 0.00 | 0.00 | 61 | 1011.8 |
| 20260502003056 | 53 | 150 | 2.0 | 7.0 | 0.00 | 0.00 | 0.00 | 58 | 1011.5 |
| 20260502001554 | 54 | 163 | 2.0 | 8.0 | 0.00 | 0.00 | 0.00 | 51 | 1011.3 |
| 20260502000053 | 55 | 161 | 0.0 | 3.0 | 0.00 | 0.00 | 0.00 | 48 | 1010.9 |
| 20260501234554 | 56 | 173 | 1.0 | 4.0 | 0.00 | 0.00 | 0.00 | 47 | 1010.7 |
| 20260501233057 | 57 | 183 | 1.0 | 8.0 | 0.00 | 0.00 | 0.00 | 46 | 1010.5 |
| 20260501231551 | 58 | 180 | 1.0 | 6.0 | 0.00 | 0.00 | 0.00 | 45 | 1010.4 |
| 20260501230051 | 59 | 235 | 0.0 | 7.0 | 0.00 | 0.00 | 0.00 | 42 | 1010.2 |
| 20260501224551 | 60 | 228 | 2.0 | 12.0 | 0.00 | 0.00 | 0.00 | 40 | 1010.0 |
| 20260501223057 | 61 | 240 | 2.0 | 12.0 | 0.00 | 0.00 | 0.00 | 39 | 1010.0 |
| 20260501221550 | 61 | 175 | 1.0 | 7.0 | 0.00 | 0.00 | 0.00 | 39 | 1009.9 |
| 20260501220048 | 62 | 171 | 4.0 | 10.0 | 0.00 | 0.00 | 0.00 | 39 | 1009.8 |
| 20260501214547 | 62 | 262 | 3.0 | 10.0 | 0.00 | 0.00 | 0.00 | 40 | 1010.1 |
| 20260501213051 | 61 | 259 | 4.0 | 10.0 | 0.00 | 0.00 | 0.00 | 41 | 1009.9 |
| 20260501211555 | 61 | 333 | 2.0 | 12.0 | 0.00 | 0.00 | 0.00 | 42 | 1009.8 |
| 20260501210144 | 61 | 240 | 2.0 | 7.0 | 0.00 | 0.00 | 0.00 | 39 | 1009.8 |
| 20260501204554 | 61 | 138 | 4.0 | 10.0 | 0.00 | 0.00 | 0.00 | 39 | 1009.8 |
| 20260501203054 | 61 | 294 | 1.0 | 9.0 | 0.00 | 0.00 | 0.00 | 42 | 1009.7 |
| 20260501201543 | 62 | 294 | 4.0 | 8.0 | 0.00 | 0.00 | 0.00 | 38 | 1009.7 |
| 20260501200041 | 62 | 184 | 4.0 | 14.0 | 0.00 | 0.00 | 0.00 | 37 | 1009.7 |
| 20260501194540 | 63 | 281 | 3.0 | 10.0 | 0.00 | 0.00 | 0.00 | 39 | 1009.8 |
| 20260501193046 | 63 | 302 | 4.0 | 11.0 | 0.00 | 0.00 | 0.00 | 40 | 1009.9 |
| 20260501191539 | 63 | 257 | 5.0 | 14.0 | 0.00 | 0.00 | 0.00 | 35 | 1010.0 |
| 20260501190036 | 63 | 246 | 3.0 | 13.0 | 0.00 | 0.00 | 0.00 | 39 | 1010.1 |
| 20260501184538 | 62 | 288 | 3.0 | 13.0 | 0.00 | 0.00 | 0.00 | 39 | 1010.2 |
| 20260501183035 | 62 | 229 | 6.0 | 14.0 | 0.00 | 0.00 | 0.00 | 40 | 1010.3 |
| 20260501181534 | 62 | 148 | 2.0 | 11.0 | 0.00 | 0.00 | 0.00 | 39 | 1010.4 |